Dewpoint
53 53 53 54 54 54 54 53 53 53 53 53 54 53 51 51 52 31 6 35 42 48 47 21 20 23 25 25 29 28 20 17 16 13 13 20 20 25 27 24 26 27 27 25 25
55 54 53 54 54 54 53 53 52 52 53 53 53 53 52 52 33 14 31 44 45 45 21 16 14 19 20 22 25 25 18 13 13 14 12 20 20 22 24 23 24 26 26 24 24
57 56 55 54 54 54 53 53 52 52 52 52 52 52 52 47 21 5 39 43 43 41 21 20 20 21 20 21 21 20 13 15 11 13 18 20 21 24 25 22 23 25 23 24 23
58 57 56 55 54 53 53 53 52 52 51 51 50 51 52 29 22 8 40 40 40 27 21 19 19 19 18 16 17 17 15 15 19 20 21 23 26 26 27 26 24 23 23 20 19
60 59 58 57 56 55 53 53 52 51 51 51 49 51 35 23 20 9 31 26 22 21 19 18 14 14 15 12 15 17 16 20 21 22 23 25 27 26 26 28 25 25 18 18 18
61 60 59 58 56 55 54 53 53 51 51 51 49 49 27 27 10 10 11 18 17 20 20 19 17 17 14 13 16 19 20 20 21 21 22 24 23 29 26 29 26 21 18 17 19
62 61 60 59 57 56 55 54 53 51 51 50 47 36 24 22 10 15 16 17 17 18 20 23 23 21 17 16 19 17 15 16 17 19 22 28 24 27 27 29 26 19 18 20 21
62 62 61 60 58 57 55 54 51 52 51 50 46 31 25 11 12 13 26 19 20 19 23 25 25 22 20 20 17 16 17 15 18 22 28 26 10 25 28 27 22 21 20 21 18
61 62 61 60 59 57 54 52 51 47 47 46 36 24 23 26 11 17 24 27 30 27 27 28 28 29 21 21 26 17 11 8 6 18 24 25 20 27 28 26 21 22 23 21 23
58 58 59 60 59 56 52 50 48 41 40 35 24 22 18 15 18 16 19 22 33 34 32 26 22 20 17 16 25 18 -1 -0 2 16 21 21 21 20 25 28 27 28 25 31 31
57 57 57 59 59 50 47 49 42 36 29 38 39 33 31 17 14 17 21 25 25 27 28 27 21 23 19 10 9 6 1 -1 -0 12 14 14 15 17 19 24 28 27 29 30 30
57 57 57 58 57 48 45 49 39 37 40 40 37 34 20 14 20 18 17 17 15 13 19 20 20 13 12 11 10 6 2 -2 4 12 13 11 14 32 27 29 30 34 29 30 28
55 56 57 55 50 47 46 40 38 40 43 41 32 23 14 9 13 18 15 13 13 14 13 10 11 9 8 10 8 4 2 2 6 8 12 18 25 27 26 22 17 11 18 28 28
55 56 56 51 52 41 39 40 42 46 39 36 24 13 7 11 12 16 17 17 14 7 6 6 10 9 7 4 6 7 12 11 11 14 19 19 22 23 22 30 0 6 16 27 28
52 54 53 50 43 46 43 45 47 48 30 25 16 11 10 8 11 18 20 18 12 9 8 12 6 8 6 2 7 7 15 13 16 18 20 21 24 21 15 10 2 8 15 23 28
51 51 51 51 48 46 46 46 47 36 31 24 12 8 7 13 16 21 20 19 19 14 12 7 14 11 10 11 11 13 16 17 16 21 22 23 18 15 15 20 14 18 17 19 27
49 49 47 46 44 46 47 48 36 32 36 34 30 22 23 25 27 22 32 32 26 28 28 11 10 12 14 15 12 12 17 23 22 23 23 17 10 24 12 15 23 24 22 22 27
47 47 46 45 47 47 46 44 32 34 35 27 20 22 27 22 18 16 21 24 25 23 22 15 15 11 12 10 8 10 12 19 9 13 5 10 16 20 9 11 27 30 24 20 24
49 48 45 44 46 47 44 33 35 34 33 31 32 34 33 22 18 27 24 22 19 29 27 23 6 13 13 11 10 12 19 16 17 11 2 3 5 10 0 3 10 19 23 23 24
47 46 43 45 46 46 40 35 34 35 33 31 31 36 35 29 24 26 32 22 21 18 24 28 25 10 14 14 13 11 13 18 20 14 10 -4 -5 3 8 15 13 18 21 22 24
47 42 43 45 47 44 35 34 31 33 35 36 35 35 34 34 26 29 33 23 19 18 19 22 25 21 13 12 7 12 18 13 12 14 14 3 8 19 18 20 19 21 22 22 24
45 39 43 45 39 39 34 34 37 35 36 36 35 35 33 34 34 28 28 30 20 18 21 17 29 19 13 15 16 13 7 8 10 16 13 9 6 22 20 21 21 22 22 23 25
42 40 43 43 34 35 34 34 36 35 36 36 34 35 34 34 32 30 21 23 22 17 26 25 26 22 23 22 15 13 12 13 11 14 13 11 7 10 10 19 21 22 22 24 25
43 35 39 39 38 36 35 35 35 36 35 36 35 33 31 32 32 32 26 23 22 27 25 20 24 21 14 21 22 17 16 9 9 10 15 8 7 3 5 17 18 21 22 24 25
43 36 38 33 35 35 35 34 33 34 35 35 35 34 35 31 29 29 30 26 23 28 31 23 19 17 9 3 8 11 19 17 15 7 7 12 8 9 15 19 19 21 22 23 23
40 37 38 36 35 35 33 33 31 34 34 33 33 35 35 31 33 31 30 29 26 26 29 27 23 11 14 9 8 9 10 13 16 10 6 7 10 13 17 15 19 22 22 21 22
45 44 41 38 34 33 34 35 34 36 37 37 34 33 31 33 34 29 34 30 22 25 27 23 24 16 17 7 16 19 21 18 16 16 9 4 10 8 11 7 18 21 22 21 20
Lifted_Index
11 11 11 12 13 13 13 14 14 14 14 13 13 13 14 14 14 13 13 14 13 13 13 14 14 13 12 11 11 9 6 5 5 5 6 7 7 9 10 10 10 12 13 14 14
10 10 10 11 12 12 13 13 13 13 13 12 12 13 13 13 12 12 14 14 13 13 14 14 13 13 11 10 10 8 6 5 6 6 6 7 8 8 9 8 9 11 12 14 14
9 9 9 9 10 11 12 12 11 11 11 11 11 12 13 12 11 12 15 15 14 14 15 14 13 12 10 9 8 7 6 6 7 7 7 7 8 8 8 8 9 10 12 13 13
7 7 8 8 8 9 10 10 10 9 9 9 10 11 11 10 10 13 15 15 15 15 14 14 12 11 9 8 8 7 6 6 7 8 8 8 8 8 9 9 10 11 12 12 13
6 6 7 7 7 8 9 9 9 9 9 9 9 10 9 9 11 14 16 16 15 15 14 13 12 10 9 8 7 6 5 6 8 9 9 8 8 8 9 10 11 11 12 12 13
4 5 6 6 7 7 7 8 8 8 8 8 9 9 8 8 12 15 16 16 15 14 12 11 10 9 7 6 5 4 3 5 7 8 9 8 8 8 9 10 10 11 12 12 13
3 4 5 5 6 6 6 7 7 7 7 8 9 9 8 9 13 15 15 15 14 12 10 9 9 7 5 4 3 2 2 3 5 7 8 8 7 7 9 10 10 11 12 13 14
3 3 4 5 5 5 6 6 6 6 7 7 8 8 8 10 13 14 14 13 12 11 9 9 8 5 4 3 2 1 1 2 4 7 9 8 7 7 9 10 11 11 12 13 14
3 4 4 4 4 5 5 5 5 6 6 7 7 7 7 9 11 12 12 11 10 9 9 8 7 5 4 3 2 1 1 2 5 8 9 8 6 7 10 11 11 12 13 14 15
4 5 5 4 4 4 4 4 5 5 6 6 6 6 6 7 8 9 10 9 8 8 7 7 5 4 4 4 3 2 2 3 6 8 8 7 6 8 10 11 11 13 14 16 17
6 6 6 5 4 4 4 4 4 4 4 4 5 5 5 6 6 8 9 8 8 7 7 6 5 5 6 6 5 5 5 5 7 8 7 6 5 7 10 11 12 14 15 17 18
7 6 6 5 4 3 3 3 3 3 3 3 4 4 5 5 6 7 8 8 7 7 7 6 6 7 8 9 8 7 7 7 7 7 7 5 5 7 10 12 13 15 16 18 18
6 6 5 4 3 2 2 2 2 2 3 3 3 4 5 6 6 7 8 8 6 6 6 7 7 8 9 9 8 7 7 6 6 6 6 5 4 6 9 12 14 16 18 18 18
5 4 3 3 2 2 1 2 2 2 2 2 3 5 6 6 6 7 9 7 5 5 6 7 7 8 8 8 7 6 6 6 6 5 4 4 3 5 8 11 14 16 17 18 17
4 3 2 2 1 1 2 2 3 2 2 2 4 6 6 4 4 5 7 6 4 4 5 6 7 7 7 7 7 6 6 6 5 4 3 3 3 4 7 10 13 15 17 16 15
5 4 2 1 1 2 2 3 2 2 1 2 3 4 3 2 2 3 4 5 4 4 4 6 7 7 7 7 7 6 6 5 4 3 2 3 3 4 7 11 13 15 16 15 13
6 4 3 2 1 2 3 2 2 1 1 2 2 2 2 1 2 2 3 3 3 3 3 4 6 7 7 7 6 6 5 3 2 1 2 3 3 5 9 13 15 16 16 14 12
6 5 3 2 2 2 2 2 1 1 1 2 2 2 2 1 1 2 2 2 2 2 2 2 4 6 7 7 7 6 5 4 2 1 2 3 4 7 12 15 16 17 15 13 11
5 5 4 3 2 2 2 2 1 1 2 2 2 2 2 1 2 2 2 2 3 3 3 2 4 6 8 8 8 7 6 5 3 1 1 2 4 8 12 14 16 16 14 12 11
4 4 4 4 3 3 2 2 2 2 3 3 3 2 2 2 2 2 2 3 3 4 5 4 4 6 8 8 8 8 7 6 4 2 1 1 3 7 11 13 14 14 13 11 10
3 4 4 4 4 3 3 3 3 3 4 4 3 3 2 2 2 2 2 3 3 4 5 6 5 5 6 7 7 7 7 6 4 3 1 1 3 8 11 13 14 14 12 11 10
3 3 4 4 4 4 4 4 4 4 4 4 3 3 2 2 2 3 3 3 4 4 5 6 5 4 5 7 7 7 7 7 5 4 3 2 5 10 13 14 15 14 13 11 11
3 4 4 4 4 4 4 4 3 3 4 3 3 3 2 2 3 3 3 4 4 5 6 6 5 3 4 5 6 6 7 7 6 5 3 3 5 10 14 15 15 14 13 12 11
3 3 4 4 4 4 4 3 3 3 3 3 3 2 2 3 3 3 3 4 5 6 7 7 5 3 4 5 6 6 6 7 6 5 4 4 6 10 13 15 15 14 13 12 11
3 3 4 4 4 4 4 4 3 3 3 2 2 2 2 2 3 3 3 4 5 6 7 7 5 4 4 5 6 5 5 5 6 5 5 5 7 10 14 15 14 13 12 11 11
3 3 3 3 4 4 4 4 4 3 3 3 2 2 2 3 3 3 4 5 5 5 6 6 5 4 4 5 5 4 4 4 6 6 6 6 8 12 14 15 15 13 12 11 11
3 3 3 3 4 4 4 4 4 4 4 3 3 2 3 3 4 5 5 6 5 5 5 5 5 4 3 4 4 3 3 5 6 7 6 6 9 12 14 15 14 13 12 11 11